Tracking 35334 objects as of 12-Sep-2026
HD Live streaming from Space Station
objects crossing your sky now

GORIZONT 32

Track GORIZONT 32 now!
GORIZONT 32 is classified as:


NORAD ID: 23880
Int'l Code: 1996-034A
Launch date: May 25, 1996
Source: Commonwealth of Independent States (former USSR) (CIS)
Launch site: TYURATAM MISSILE AND SPACE COMPLEX (TTMTR)

Telecommunications; augment television channels available to the people of Siberia.
Your satellite tracking list
Your tracking list is empty




NASA's NSSDC Master Catalog

Two Line Element Set (TLE):
1 23880U 96034A   26254.67764191 -.00000382  00000-0  00000-0 0  9997
2 23880  14.3788 354.3155 0008326 358.6890   7.3416  1.00181948110902
Source of the keplerian elements: AFSPC